Location: Newark
(41.6478°N, 9.0078°E)
Time: 19:23:00
(UTC+00:00)

Hubble Space Telescope - Visible Passes

Search period start: 13 November 2019 00:00
Search period end: 23 November 2019 00:00
Orbit: 536 x 540 km, 28.5° (Epoch: 13 November)

Date Brightness Start Highest point End Pass type
(mag) Time Alt. Az. Time Alt. Az. Time Alt. Az.
20 Nov 3.3 17:57:16 10° S 17:58:27 11° S 17:58:42 11° SSE visible
21 Nov 3.2 17:46:09 10° SSW 17:47:43 12° S 17:48:44 11° SSE visible
22 Nov 3.2 17:35:12 10° SSW 17:37:00 13° S 17:38:45 10° SSE visible
